,,PA_Meas_PMT16A,,PR_Meas_QMR101_102,,RH_Meas_QMH101,,SR_Meas_QMS101,,TA_Meas_QMH101,,GenWind,,GenWind,
time,status,PA,status,PR,status,RH,status,SR,status,TA,status,DirAvg,status,SpdAvg,
2011-10-18, 00:00:04,VALID,916.941,VALID,0,VALID,83.1029,VALID,0,VALID,21.1819,VALID,105,VALID,0.785547,
2011-10-18, 00:01:04,VALID,916.914,VALID,0,VALID,82.8665,VALID,0,VALID,21.2226,VALID,140,VALID,1.33047,
2011-10-18, 00:02:04,VALID,916.908,VALID,0,VALID,82.4244,VALID,0,VALID,21.3006,VALID,169,VALID,1.06211,
2011-10-18, 00:03:04,VALID,916.887,VALID,0,VALID,82.2948,VALID,0,VALID,21.3591,VALID,159,VALID,1.00586,
2011-10-18, 00:04:04,VALID,916.891,VALID,0,VALID,82.2033,VALID,0,VALID,21.3786,VALID,111,VALID,1.0668,
2011-10-18, 00:05:04,VALID,916.886,VALID,0,VALID,82.0127,VALID,0,VALID,21.4388,VALID,128,VALID,0.907031,
2011-10-18, 00:06:04,VALID,916.863,VALID,0,VALID,81.7688,VALID,0,VALID,21.4388,VALID,98,VALID,1.00039,
2011-10-18, 00:07:04,VALID,916.837,VALID,0,VALID,81.9288,VALID,0,VALID,21.4567,VALID,174,VALID,1.19531,
2011-10-18, 00:08:04,VALID,916.79,VALID,0,VALID,82.2414,VALID,0,VALID,21.4762,VALID,102,VALID,1.57109,
2011-10-18, 00:09:04,VALID,916.782,VALID,0,VALID,82.1499,VALID,0,VALID,21.3981,VALID,85,VALID,1.32383,
2011-10-18, 00:10:04,VALID,916.727,VALID,0,VALID,82.1194,VALID,0,VALID,21.3981,VALID,121,VALID,0.955469,
2011-10-18, 00:11:04,VALID,916.684,VALID,0,VALID,82.0051,VALID,0,VALID,21.4583,VALID,115,VALID,1.49453,
2011-10-18, 00:12:04,VALID,916.69,VALID,0,VALID,82.1347,VALID,0,VALID,21.4567,VALID,117,VALID,0.950391,
2011-10-18, 00:13:04,VALID,916.687,VALID,0,VALID,82.3253,VALID,0,VALID,21.416,VALID,57,VALID,1.47617,
2011-10-18, 00:14:04,VALID,916.65,VALID,0,VALID,82.4167,VALID,0,VALID,21.3786,VALID,102,VALID,1.075,
2011-10-18, 00:15:04,VALID,916.62,VALID,0,VALID,82.2643,VALID,0,VALID,21.3786,VALID,103,VALID,2.46563,
2011-10-18, 00:16:04,VALID,916.581,VALID,0,VALID,81.9288,VALID,0,VALID,21.4567,VALID,95,VALID,1.87891,
2011-10-18, 00:17:04,VALID,916.524,VALID,0,VALID,81.8374,VALID,0,VALID,21.4957,VALID,154,VALID,2.02109,
2011-10-18, 00:18:04,VALID,916.589,VALID,0,VALID,81.967,VALID,0,VALID,21.5152,VALID,60,VALID,1.10977,
2011-10-18, 00:19:04,VALID,916.56,VALID,0,VALID,81.7306,VALID,0,VALID,21.5152,VALID,70,VALID,1.42422,
2011-10-18, 00:20:04,VALID,916.605,VALID,0,VALID,81.5629,VALID,0,VALID,21.5347,VALID,72,VALID,1.40391,
2011-10-18, 00:21:04,VALID,916.624,VALID,0,VALID,80.8082,VALID,0,VALID,21.6128,VALID,96,VALID,2.50156,
2011-10-18, 00:22:04,VALID,916.598,VALID,0,VALID,81.1208,VALID,0,VALID,21.6323,VALID,154,VALID,1.54492,
2011-10-18, 00:23:04,VALID,916.591,VALID,0,VALID,81.1284,VALID,0,VALID,21.5916,VALID,151,VALID,0.947656,
2011-10-18, 00:24:04,VALID,916.566,VALID,0,VALID,81.197,VALID,0,VALID,21.5932,VALID,136,VALID,2.00586,
2011-10-18, 00:25:04,VALID,916.533,VALID,0,VALID,81.2656,VALID,0,VALID,21.5932,VALID,190,VALID,2.10859,
2011-10-18, 00:26:04,VALID,916.591,VALID,0,VALID,81.4028,VALID,0,VALID,21.6144,VALID,100,VALID,1.88789,
2011-10-18, 00:27:04,VALID,916.508,VALID,0,VALID,81.197,VALID,0,VALID,21.5932,VALID,142,VALID,1.66289,
2011-10-18, 00:28:04,VALID,916.515,VALID,0,VALID,81.4105,VALID,0,VALID,21.5737,VALID,57,VALID,1.62031,
2011-10-18, 00:29:04,VALID,916.504,VALID,0,VALID,81.2885,VALID,0,VALID,21.5737,VALID,131,VALID,1.67969,
2011-10-18, 00:30:04,VALID,916.519,VALID,0,VALID,81.1208,VALID,0,VALID,21.5932,VALID,59,VALID,2.64687,
2011-10-18, 00:31:04,VALID,916.531,VALID,0,VALID,81.197,VALID,0,VALID,21.6534,VALID,96,VALID,1.63047,
2011-10-18, 00:32:04,VALID,916.449,VALID,0,VALID,81.4486,VALID,0,VALID,21.6339,VALID,97,VALID,1.36133,
2011-10-18, 00:33:04,VALID,916.464,VALID,0,VALID,81.3495,VALID,0,VALID,21.5932,VALID,110,VALID,2.68008,
2011-10-18, 00:34:04,VALID,916.41,VALID,0,VALID,81.6697,VALID,0,VALID,21.5721,VALID,91,VALID,1.22187,
2011-10-18, 00:35:04,VALID,916.384,VALID,0,VALID,81.5096,VALID,0,VALID,21.5721,VALID,88,VALID,1.84883,
2011-10-18, 00:36:04,VALID,916.359,VALID,0,VALID,81.38,VALID,0.107441,VALID,21.6111,VALID,104,VALID,1.94727,
2011-10-18, 00:37:04,VALID,916.346,VALID,0,VALID,80.732,VALID,0,VALID,21.7103,VALID,124,VALID,2.55508,
2011-10-18, 00:38:04,VALID,916.329,VALID,0,VALID,80.2212,VALID,0.107441,VALID,21.8274,VALID,116,VALID,2.53047,
2011-10-18, 00:39:04,VALID,916.327,VALID,0,VALID,80.0306,VALID,0.107441,VALID,21.8452,VALID,112,VALID,1.86289,
2011-10-18, 00:40:04,VALID,916.308,VALID,0,VALID,79.8553,VALID,0,VALID,21.8842,VALID,97,VALID,0.739062,
2011-10-18, 00:41:04,VALID,916.302,VALID,0,VALID,80.206,VALID,0,VALID,21.8842,VALID,105,VALID,1.03906,
2011-10-18, 00:42:04,VALID,916.336,VALID,0,VALID,80.1602,VALID,0.107441,VALID,21.8257,VALID,144,VALID,1.7,
2011-10-18, 00:43:04,VALID,916.341,VALID,0,VALID,80.2212,VALID,0,VALID,21.7867,VALID,69,VALID,2.39922,
2011-10-18, 00:44:04,VALID,916.301,VALID,0,VALID,80.1526,VALID,0,VALID,21.8257,VALID,94,VALID,1.41797,
2011-10-18, 00:45:04,VALID,916.311,VALID,0,VALID,80.1907,VALID,0.107441,VALID,21.8452,VALID,73,VALID,1.57773,
2011-10-18, 00:46:04,VALID,916.288,VALID,0,VALID,80.0916,VALID,0,VALID,21.8257,VALID,79,VALID,1.96797,
2011-10-18, 00:47:04,VALID,916.254,VALID,0,VALID,80.1374,VALID,0,VALID,21.7867,VALID,25,VALID,1.98008,
2011-10-18, 00:48:04,VALID,916.241,VALID,0,VALID,80.2517,VALID,0,VALID,21.8452,VALID,359,VALID,2.12734,
2011-10-18, 00:49:04,VALID,916.244,VALID,0,VALID,80.3661,VALID,0,VALID,21.8062,VALID,2,VALID,1.04023,
2011-10-18, 00:50:04,VALID,916.243,VALID,0,VALID,80.4652,VALID,0,VALID,21.7867,VALID,2,VALID,1.10156,
2011-10-18, 00:51:04,VALID,916.245,VALID,0,VALID,80.6252,VALID,0,VALID,21.7688,VALID,2,VALID,0.532031,
2011-10-18, 00:52:04,VALID,916.236,VALID,0,VALID,80.8768,VALID,0,VALID,21.7298,VALID,359,VALID,0.705859,
2011-10-18, 00:53:04,VALID,916.217,VALID,0,VALID,80.6481,VALID,0,VALID,21.7087,VALID,110,VALID,1.11992,
2011-10-18, 00:54:04,VALID,916.192,VALID,0,VALID,80.7853,VALID,0.107441,VALID,21.7282,VALID,126,VALID,0.757031,
2011-10-18, 00:55:04,VALID,916.201,VALID,0,VALID,80.6786,VALID,0,VALID,21.7883,VALID,87,VALID,2.06211,
2011-10-18, 00:56:04,VALID,916.188,VALID,0,VALID,81.2122,VALID,0,VALID,21.6696,VALID,145,VALID,0.658984,
2011-10-18, 00:57:04,VALID,916.181,VALID,0,VALID,81.2122,VALID,0,VALID,21.6323,VALID,133,VALID,1.02383,
2011-10-18, 00:58:04,VALID,916.174,VALID,0,VALID,81.6392,VALID,0.107441,VALID,21.5721,VALID,99,VALID,1.03672,
2011-10-18, 00:59:04,VALID,916.136,VALID,0,VALID,81.5553,VALID,0,VALID,21.5331,VALID,150,VALID,1.65469,
2011-10-18, 01:00:04,VALID,916.083,VALID,0,VALID,81.5629,VALID,0,VALID,21.5526,VALID,90,VALID,1.50352,
2011-10-18, 01:01:04,VALID,916.114,VALID,0,VALID,80.5871,VALID,0,VALID,21.7103,VALID,79,VALID,2.59063,
2011-10-18, 01:02:04,VALID,916.043,VALID,0,VALID,80.5719,VALID,0.107441,VALID,21.7087,VALID,86,VALID,1.80703,
2011-10-18, 01:03:04,VALID,916.054,VALID,0,VALID,80.8692,VALID,0,VALID,21.7103,VALID,103,VALID,1.18242,
2011-10-18, 01:04:04,VALID,916.015,VALID,0,VALID,81.3114,VALID,0,VALID,21.6323,VALID,89,VALID,0.894922,
2011-10-18, 01:05:04,VALID,916.02,VALID,0,VALID,81.1513,VALID,0,VALID,21.6128,VALID,100,VALID,1.57461,
2011-10-18, 01:06:04,VALID,915.992,VALID,0,VALID,81.258,VALID,0,VALID,21.6339,VALID,109,VALID,1.4207,
2011-10-18, 01:07:04,VALID,915.964,VALID,0,VALID,81.2427,VALID,0,VALID,21.6144,VALID,126,VALID,1.23203,
2011-10-18, 01:08:04,VALID,915.964,VALID,0,VALID,81.6544,VALID,0,VALID,21.5542,VALID,116,VALID,1.26563,
2011-10-18, 01:09:04,VALID,915.93,VALID,0,VALID,81.9365,VALID,0,VALID,21.4973,VALID,110,VALID,1.23281,
2011-10-18, 01:10:04,VALID,915.898,VALID,0,VALID,82.3558,VALID,0,VALID,21.4567,VALID,97,VALID,1.19805,
2011-10-18, 01:11:04,VALID,915.936,VALID,0,VALID,82.1347,VALID,0,VALID,21.4177,VALID,88,VALID,2.38008,
2011-10-18, 01:12:04,VALID,915.901,VALID,0,VALID,81.2275,VALID,0,VALID,21.4778,VALID,97,VALID,1.68438,
2011-10-18, 01:13:04,VALID,915.895,VALID,0,VALID,80.7243,VALID,0,VALID,21.6713,VALID,136,VALID,1.41875,
2011-10-18, 01:14:04,VALID,915.885,VALID,0,VALID,80.5871,VALID,0,VALID,21.712,VALID,107,VALID,1.50508,
2011-10-18, 01:15:04,VALID,915.872,VALID,0,VALID,80.6024,VALID,0,VALID,21.6713,VALID,95,VALID,2.08008,
2011-10-18, 01:16:04,VALID,915.818,VALID,0,VALID,81.1208,VALID,0,VALID,21.6518,VALID,104,VALID,0.689062,
2011-10-18, 01:17:05,VALID,915.848,VALID,0,VALID,81.2122,VALID,0,VALID,21.5932,VALID,113,VALID,1.30313,
2011-10-18, 01:18:05,VALID,915.86,VALID,0,VALID,81.5782,VALID,0,VALID,21.5737,VALID,120,VALID,1.18672,
2011-10-18, 01:19:05,VALID,915.774,VALID,0,VALID,81.4562,VALID,0,VALID,21.5347,VALID,128,VALID,1.37617,
2011-10-18, 01:20:05,VALID,915.778,VALID,0,VALID,81.8221,VALID,0,VALID,21.5754,VALID,100,VALID,1.08711,
2011-10-18, 01:21:05,VALID,915.761,VALID,0,VALID,81.6087,VALID,0,VALID,21.5152,VALID,103,VALID,1.98555,
2011-10-18, 01:22:05,VALID,915.75,VALID,0,VALID,81.5629,VALID,0,VALID,21.5542,VALID,113,VALID,1.30156,
2011-10-18, 01:23:05,VALID,915.685,VALID,0,VALID,81.5629,VALID,0,VALID,21.5542,VALID,105,VALID,1.42734,
2011-10-18, 01:24:05,VALID,915.655,VALID,0,VALID,81.3952,VALID,0,VALID,21.5737,VALID,90,VALID,0.988281,
2011-10-18, 01:25:05,VALID,915.697,VALID,0,VALID,81.0979,VALID,0,VALID,21.6128,VALID,130,VALID,1.83672,
2011-10-18, 01:26:05,VALID,915.659,VALID,0,VALID,81.0979,VALID,0,VALID,21.6323,VALID,72,VALID,2.03125,
2011-10-18, 01:27:05,VALID,915.636,VALID,0,VALID,81.0522,VALID,0,VALID,21.6323,VALID,114,VALID,1.18516,
2011-10-18, 01:28:05,VALID,915.628,VALID,0,VALID,81.3723,VALID,0,VALID,21.6729,VALID,102,VALID,0.872266,
2011-10-18, 01:29:05,VALID,915.63,VALID,0,VALID,81.1131,VALID,0,VALID,21.6128,VALID,113,VALID,1.97422,
2011-10-18, 01:30:05,VALID,915.625,VALID,0,VALID,81.3419,VALID,0,VALID,21.5932,VALID,101,VALID,1.13789,
2011-10-18, 01:31:05,VALID,915.62,VALID,0,VALID,81.6697,VALID,0,VALID,21.5542,VALID,109,VALID,0.973047,
2011-10-18, 01:32:05,VALID,915.605,VALID,0,VALID,81.662,VALID,0,VALID,21.5152,VALID,119,VALID,1.50078,
2011-10-18, 01:33:05,VALID,915.619,VALID,0,VALID,81.6544,VALID,0,VALID,21.5559,VALID,71,VALID,0.7625,
2011-10-18, 01:34:05,VALID,915.585,VALID,0,VALID,81.7611,VALID,0,VALID,21.5347,VALID,118,VALID,1.3582,
2011-10-18, 01:35:05,VALID,915.662,VALID,0,VALID,81.9441,VALID,0,VALID,21.5136,VALID,118,VALID,0.809375,
2011-10-18, 01:36:05,VALID,915.634,VALID,0,VALID,82.249,VALID,0,VALID,21.4762,VALID,97,VALID,1.60898,
2011-10-18, 01:37:05,VALID,915.592,VALID,0,VALID,82.2185,VALID,0,VALID,21.4355,VALID,108,VALID,0.545703,
2011-10-18, 01:38:05,VALID,915.572,VALID,0,VALID,81.845,VALID,0,VALID,21.455,VALID,140,VALID,1.01836,
2011-10-18, 01:39:05,VALID,915.583,VALID,0,VALID,81.6239,VALID,0,VALID,21.4746,VALID,139,VALID,0.848437,
2011-10-18, 01:40:05,VALID,915.549,VALID,0,VALID,82.028,VALID,0,VALID,21.5347,VALID,139,VALID,0.739453,
2011-10-18, 01:41:05,VALID,915.524,VALID,0,VALID,81.662,VALID,0,VALID,21.4957,VALID,144,VALID,0.545703,
2011-10-18, 01:42:05,VALID,915.497,VALID,0,VALID,81.136,VALID,0,VALID,21.5526,VALID,146,VALID,1.84102,
2011-10-18, 01:43:05,VALID,915.49,VALID,0,VALID,81.2656,VALID,0,VALID,21.6128,VALID,154,VALID,0.39375,
2011-10-18, 01:44:05,VALID,915.509,VALID,0,VALID,81.4257,VALID,0.107441,VALID,21.6128,VALID,152,VALID,1.01133,
2011-10-18, 01:45:05,VALID,915.475,VALID,0,VALID,80.7091,VALID,0,VALID,21.6323,VALID,113,VALID,0.953906,
2011-10-18, 01:46:05,VALID,915.469,VALID,0,VALID,80.488,VALID,0,VALID,21.7298,VALID,113,VALID,1.60625,
2011-10-18, 01:47:05,VALID,915.453,VALID,0,VALID,80.1907,VALID,0,VALID,21.7298,VALID,134,VALID,1.48555,
2011-10-18, 01:48:05,VALID,915.453,VALID,0,VALID,80.2365,VALID,0,VALID,21.7883,VALID,124,VALID,1.55977,
2011-10-18, 01:49:05,VALID,915.424,VALID,0,VALID,80.4194,VALID,0,VALID,21.79,VALID,120,VALID,1.30859,
2011-10-18, 01:50:05,VALID,915.466,VALID,0,VALID,81.0979,VALID,0,VALID,21.7493,VALID,112,VALID,1.10352,
2011-10-18, 01:51:05,VALID,915.468,VALID,0,VALID,80.549,VALID,0,VALID,21.751,VALID,82,VALID,1.56875,
2011-10-18, 01:52:05,VALID,915.485,VALID,0,VALID,80.61,VALID,0,VALID,21.7705,VALID,83,VALID,0.868359,
2011-10-18, 01:53:05,VALID,915.506,VALID,0,VALID,80.3203,VALID,0,VALID,21.7688,VALID,109,VALID,1.46094,
2011-10-18, 01:54:05,VALID,915.487,VALID,0,VALID,80.7701,VALID,0,VALID,21.7688,VALID,111,VALID,1.58945,
2011-10-18, 01:55:05,VALID,915.458,VALID,0,VALID,80.7472,VALID,0,VALID,21.751,VALID,117,VALID,1.09297,
2011-10-18, 01:56:05,VALID,915.445,VALID,0,VALID,81.5096,VALID,0,VALID,21.6713,VALID,117,VALID,0.922656,
2011-10-18, 01:57:05,VALID,915.426,VALID,0,VALID,81.3037,VALID,0,VALID,21.6323,VALID,128,VALID,1.83789,
2011-10-18, 01:58:05,VALID,915.399,VALID,0,VALID,81.4791,VALID,0,VALID,21.6111,VALID,132,VALID,0.819141,
2011-10-18, 01:59:05,VALID,915.383,VALID,0,VALID,81.1589,VALID,0,VALID,21.6323,VALID,115,VALID,1.81523,
2011-10-18, 02:00:05,VALID,915.33,VALID,0,VALID,81.4791,VALID,0,VALID,21.6339,VALID,117,VALID,0.332031,
2011-10-18, 02:01:05,VALID,915.342,VALID,0,VALID,81.5172,VALID,0,VALID,21.5932,VALID,118,VALID,1.3207,
2011-10-18, 02:02:05,VALID,915.322,VALID,0,VALID,81.441,VALID,0,VALID,21.5737,VALID,118,VALID,1.63164,
2011-10-18, 02:03:05,VALID,915.289,VALID,0,VALID,80.5414,VALID,0,VALID,21.6518,VALID,37,VALID,1.54531,
2011-10-18, 02:04:05,VALID,915.282,VALID,0,VALID,80.3584,VALID,0,VALID,21.79,VALID,96,VALID,0.934375,
2011-10-18, 02:05:05,VALID,915.274,VALID,0,VALID,80.4575,VALID,0,VALID,21.7688,VALID,96,VALID,1.10508,
2011-10-18, 02:06:05,VALID,915.252,VALID,0,VALID,80.8616,VALID,0,VALID,21.7705,VALID,96,VALID,1.08008,
2011-10-18, 02:07:05,VALID,915.247,VALID,0,VALID,81.6925,VALID,0,VALID,21.6518,VALID,112,VALID,1.38086,
2011-10-18, 02:08:05,VALID,915.238,VALID,0,VALID,82.028,VALID,0,VALID,21.5932,VALID,106,VALID,1.44375,
2011-10-18, 02:09:05,VALID,915.237,VALID,0,VALID,81.6239,VALID,0,VALID,21.5347,VALID,123,VALID,1.59375,
2011-10-18, 02:10:05,VALID,915.277,VALID,0,VALID,81.3876,VALID,0,VALID,21.5932,VALID,99,VALID,1.44219,
2011-10-18, 02:11:05,VALID,915.228,VALID,0,VALID,81.7993,VALID,0,VALID,21.5737,VALID,84,VALID,1.00078,
2011-10-18, 02:12:05,VALID,915.244,VALID,0,VALID,81.5705,VALID,0,VALID,21.6144,VALID,45,VALID,2.23398,
2011-10-18, 02:13:05,VALID,915.239,VALID,0,VALID,81.8907,VALID,0,VALID,21.5559,VALID,63,VALID,1.38945,
2011-10-18, 02:14:05,VALID,915.24,VALID,0,VALID,81.7993,VALID,0,VALID,21.5363,VALID,63,VALID,1.02227,
2011-10-18, 02:15:05,VALID,915.256,VALID,0,VALID,82.0584,VALID,0,VALID,21.5559,VALID,112,VALID,1.25195,
2011-10-18, 02:16:05,VALID,915.252,VALID,0,VALID,82.5311,VALID,0,VALID,21.4762,VALID,125,VALID,1.26055,
2011-10-18, 02:17:05,VALID,915.235,VALID,0,VALID,82.7217,VALID,0,VALID,21.4193,VALID,127,VALID,1.0418,
2011-10-18, 02:18:05,VALID,915.195,VALID,0,VALID,82.8818,VALID,0,VALID,21.3998,VALID,129,VALID,1.20273,
2011-10-18, 02:19:05,VALID,915.185,VALID,0,VALID,82.9275,VALID,0,VALID,21.3998,VALID,148,VALID,0.896875,
2011-10-18, 02:20:05,VALID,915.127,VALID,0,VALID,83.0495,VALID,0,VALID,21.3591,VALID,148,VALID,1.03789,
2011-10-18, 02:21:05,VALID,915.079,VALID,0,VALID,83.2172,VALID,0,VALID,21.3608,VALID,170,VALID,1.55859,
2011-10-18, 02:22:05,VALID,915.106,VALID,0,VALID,83.5755,VALID,0,VALID,21.3591,VALID,117,VALID,1.28164,
2011-10-18, 02:23:05,VALID,915.062,VALID,0,VALID,83.5374,VALID,0,VALID,21.3412,VALID,131,VALID,2.15898,
2011-10-18, 02:24:05,VALID,915.073,VALID,0,VALID,83.6212,VALID,0,VALID,21.3803,VALID,106,VALID,1.47617,
2011-10-18, 02:25:05,VALID,915.047,VALID,0,VALID,83.3773,VALID,0,VALID,21.4193,VALID,130,VALID,1.95703,
2011-10-18, 02:26:05,VALID,915.021,VALID,0,VALID,83.2706,VALID,0,VALID,21.4177,VALID,131,VALID,2.47617,
2011-10-18, 02:27:05,VALID,915.011,VALID,0,VALID,83.5069,VALID,0,VALID,21.4388,VALID,141,VALID,0.996875,
2011-10-18, 02:28:05,VALID,914.982,VALID,0,VALID,83.7356,VALID,0,VALID,21.3786,VALID,94,VALID,1.05703,
2011-10-18, 02:29:05,VALID,914.976,VALID,0,VALID,83.6594,VALID,0,VALID,21.3998,VALID,146,VALID,1.77461,
2011-10-18, 02:30:05,VALID,914.931,VALID,0,VALID,83.7204,VALID,0,VALID,21.3981,VALID,120,VALID,1.57695,
2011-10-18, 02:31:05,VALID,914.943,VALID,0,VALID,83.8881,VALID,0,VALID,21.3786,VALID,79,VALID,2.04844,
2011-10-18, 02:32:05,VALID,914.952,VALID,0,VALID,83.9109,VALID,0,VALID,21.3786,VALID,123,VALID,1.24844,
2011-10-18, 02:33:05,VALID,914.933,VALID,0,VALID,84.0482,VALID,0,VALID,21.3786,VALID,108,VALID,1.53984,
2011-10-18, 02:34:05,VALID,914.908,VALID,0,VALID,84.315,VALID,0,VALID,21.3591,VALID,111,VALID,1.56406,
2011-10-18, 02:35:05,VALID,914.927,VALID,0,VALID,84.3988,VALID,0,VALID,21.3185,VALID,126,VALID,2.36992,
2011-10-18, 02:36:05,VALID,914.907,VALID,0,VALID,84.2235,VALID,0.107441,VALID,21.3201,VALID,96,VALID,1.65156,
2011-10-18, 02:37:05,VALID,914.908,VALID,0,VALID,84.2311,VALID,0,VALID,21.338,VALID,127,VALID,0.876172,
2011-10-18, 02:38:05,VALID,914.945,VALID,0,VALID,84.0787,VALID,0,VALID,21.3786,VALID,134,VALID,2.95586,
2011-10-18, 02:39:05,VALID,914.926,VALID,0,VALID,84.1625,VALID,0,VALID,21.3786,VALID,132,VALID,1.0082,
2011-10-18, 02:40:05,VALID,914.899,VALID,0,VALID,84.1015,VALID,0,VALID,21.4388,VALID,70,VALID,2.10039,
2011-10-18, 02:41:05,VALID,914.891,VALID,0,VALID,83.8042,VALID,0,VALID,21.416,VALID,134,VALID,2.51016,
2011-10-18, 02:42:05,VALID,914.866,VALID,0,VALID,83.85,VALID,0,VALID,21.455,VALID,86,VALID,2.44062,
2011-10-18, 02:43:05,VALID,914.901,VALID,0,VALID,83.9796,VALID,0,VALID,21.4372,VALID,72,VALID,1.44023,
2011-10-18, 02:44:05,VALID,914.882,VALID,0,VALID,83.7127,VALID,0,VALID,21.4177,VALID,125,VALID,2.22656,
2011-10-18, 02:45:05,VALID,914.866,VALID,0,VALID,83.6289,VALID,0,VALID,21.4567,VALID,133,VALID,2.17383,
2011-10-18, 02:46:05,VALID,914.903,VALID,0,VALID,83.1334,VALID,0,VALID,21.4762,VALID,156,VALID,2.31211,
2011-10-18, 02:47:05,VALID,914.924,VALID,0,VALID,83.2248,VALID,0,VALID,21.5152,VALID,75,VALID,2.33008,
2011-10-18, 02:48:05,VALID,914.921,VALID,0,VALID,83.5145,VALID,0,VALID,21.4957,VALID,114,VALID,1.03242,
2011-10-18, 02:49:05,VALID,914.923,VALID,0,VALID,83.6289,VALID,0.107441,VALID,21.416,VALID,105,VALID,1.45234,
2011-10-18, 02:50:05,VALID,914.95,VALID,0,VALID,83.7432,VALID,0,VALID,21.3965,VALID,105,VALID,1.08477,
2011-10-18, 02:51:05,VALID,914.96,VALID,0,VALID,83.8042,VALID,0,VALID,21.4177,VALID,122,VALID,1.77227,
2011-10-18, 02:52:05,VALID,914.923,VALID,0,VALID,83.5679,VALID,0,VALID,21.4372,VALID,153,VALID,1.11055,
2011-10-18, 02:53:05,VALID,914.929,VALID,0,VALID,84.0329,VALID,0,VALID,21.416,VALID,109,VALID,1.15273,
2011-10-18, 02:54:05,VALID,914.952,VALID,0,VALID,84.0024,VALID,0.107441,VALID,21.338,VALID,75,VALID,1.72656,
2011-10-18, 02:55:05,VALID,914.911,VALID,0,VALID,84.2235,VALID,0,VALID,21.3396,VALID,79,VALID,0.814453,
2011-10-18, 02:56:05,VALID,914.917,VALID,0,VALID,84.0405,VALID,0,VALID,21.3396,VALID,106,VALID,1.13711,
2011-10-18, 02:57:05,VALID,914.939,VALID,0,VALID,84.315,VALID,0.107441,VALID,21.3591,VALID,120,VALID,1.14297,
2011-10-18, 02:58:05,VALID,914.896,VALID,0,VALID,83.4993,VALID,0.107441,VALID,21.4567,VALID,61,VALID,2.63828,
2011-10-18, 02:59:05,VALID,914.92,VALID,0,VALID,83.6289,VALID,0.107441,VALID,21.4762,VALID,66,VALID,1.88516,
2011-10-18, 03:00:05,VALID,914.927,VALID,0,VALID,83.1867,VALID,0,VALID,21.4941,VALID,82,VALID,3.2332,
2011-10-18, 03:01:05,VALID,914.972,VALID,0,VALID,83.3316,VALID,0.107441,VALID,21.5331,VALID,88,VALID,2.27695,
2011-10-18, 03:02:05,VALID,915.013,VALID,0,VALID,83.0419,VALID,0.107441,VALID,21.5916,VALID,114,VALID,1.6918,
2011-10-18, 03:03:05,VALID,915.021,VALID,0,VALID,83.0038,VALID,0.107441,VALID,21.6128,VALID,81,VALID,1.81719,
2011-10-18, 03:04:05,VALID,915.016,VALID,0,VALID,82.9428,VALID,0,VALID,21.5932,VALID,114,VALID,2.89531,
2011-10-18, 03:05:05,VALID,915.013,VALID,0,VALID,82.6455,VALID,0,VALID,21.6323,VALID,118,VALID,2.08125,
2011-10-18, 03:06:05,VALID,915.052,VALID,0,VALID,82.7064,VALID,0,VALID,21.6518,VALID,97,VALID,1.7332,
2011-10-18, 03:07:05,VALID,915.044,VALID,0,VALID,82.9046,VALID,0,VALID,21.6306,VALID,89,VALID,1.37695,
2011-10-18, 03:08:05,VALID,915.073,VALID,0,VALID,83.141,VALID,0,VALID,21.5916,VALID,108,VALID,1.69297,
2011-10-18, 03:09:05,VALID,915.032,VALID,0,VALID,83.0495,VALID,0,VALID,21.5932,VALID,117,VALID,1.19492,
2011-10-18, 03:10:05,VALID,915.051,VALID,0,VALID,83.2477,VALID,0,VALID,21.5721,VALID,113,VALID,1.66328,
2011-10-18, 03:11:05,VALID,915.038,VALID,0,VALID,82.9351,VALID,0.107441,VALID,21.5721,VALID,159,VALID,1.14453,
2011-10-18, 03:12:05,VALID,915.019,VALID,0,VALID,83.0342,VALID,0,VALID,21.6128,VALID,89,VALID,1.78086,
2011-10-18, 03:13:05,VALID,915.007,VALID,0,VALID,82.7903,VALID,0.107441,VALID,21.5932,VALID,79,VALID,2.14141,
2011-10-18, 03:14:05,VALID,915.02,VALID,0,VALID,82.9656,VALID,0,VALID,21.6128,VALID,76,VALID,1.72773,
2011-10-18, 03:15:05,VALID,914.962,VALID,0,VALID,82.5921,VALID,0,VALID,21.6128,VALID,127,VALID,3.23984,
2011-10-18, 03:16:05,VALID,914.995,VALID,0,VALID,82.7903,VALID,0,VALID,21.6323,VALID,53,VALID,2.28672,
2011-10-18, 03:17:05,VALID,914.904,VALID,0,VALID,82.7217,VALID,0,VALID,21.6111,VALID,56,VALID,2.6332,
2011-10-18, 03:18:05,VALID,914.946,VALID,0,VALID,82.6683,VALID,0,VALID,21.6501,VALID,89,VALID,1.91445,
2011-10-18, 03:19:05,VALID,914.917,VALID,0,VALID,82.7903,VALID,0.107441,VALID,21.6518,VALID,111,VALID,1.62148,
2011-10-18, 03:20:05,VALID,914.876,VALID,0,VALID,82.9123,VALID,0,VALID,21.6323,VALID,58,VALID,2.06719,
2011-10-18, 03:21:05,VALID,914.892,VALID,0,VALID,82.7064,VALID,0,VALID,21.6128,VALID,23,VALID,2.79023,
2011-10-18, 03:22:05,VALID,914.869,VALID,0,VALID,82.6226,VALID,0.107441,VALID,21.6323,VALID,100,VALID,1.67344,
2011-10-18, 03:23:05,VALID,914.859,VALID,0,VALID,82.2643,VALID,0,VALID,21.6501,VALID,76,VALID,1.41602,
2011-10-18, 03:24:05,VALID,914.891,VALID,0,VALID,82.6912,VALID,0,VALID,21.6713,VALID,80,VALID,1.82578,
2011-10-18, 03:25:05,VALID,914.826,VALID,0,VALID,82.7064,VALID,0,VALID,21.6323,VALID,57,VALID,1.64023,
2011-10-18, 03:26:05,VALID,914.849,VALID,0,VALID,82.836,VALID,0,VALID,21.5916,VALID,71,VALID,1.12852,
2011-10-18, 03:27:05,VALID,914.8,VALID,0,VALID,82.897,VALID,0,VALID,21.5932,VALID,54,VALID,2.60586,
2011-10-18, 03:28:05,VALID,914.822,VALID,0,VALID,83.1943,VALID,0,VALID,21.5542,VALID,109,VALID,1.0543,
2011-10-18, 03:29:05,VALID,914.829,VALID,0,VALID,83.2096,VALID,0,VALID,21.5136,VALID,128,VALID,1.1707,
2011-10-18, 03:30:05,VALID,914.814,VALID,0,VALID,83.2248,VALID,0,VALID,21.5152,VALID,79,VALID,1.89102,
2011-10-18, 03:31:05,VALID,914.849,VALID,0,VALID,83.4764,VALID,0,VALID,21.455,VALID,80,VALID,1.96133,
2011-10-18, 03:32:05,VALID,914.81,VALID,0,VALID,83.667,VALID,0,VALID,21.4567,VALID,54,VALID,1.96328,
2011-10-18, 03:33:05,VALID,914.819,VALID,0,VALID,83.4154,VALID,0,VALID,21.4567,VALID,74,VALID,2.63125,
2011-10-18, 03:34:05,VALID,914.822,VALID,0,VALID,83.2858,VALID,0,VALID,21.4973,VALID,31,VALID,1.74648,
2011-10-18, 03:35:05,VALID,914.856,VALID,0,VALID,83.3468,VALID,0,VALID,21.5168,VALID,43,VALID,2.02813,
2011-10-18, 03:36:05,VALID,914.821,VALID,0,VALID,83.4154,VALID,0,VALID,21.4973,VALID,54,VALID,0.878516,
2011-10-18, 03:37:05,VALID,914.853,VALID,0,VALID,83.4459,VALID,0,VALID,21.4372,VALID,53,VALID,1.29844,
2011-10-18, 03:38:05,VALID,914.865,VALID,0,VALID,83.4078,VALID,0,VALID,21.4583,VALID,57,VALID,1.81172,
2011-10-18, 03:39:05,VALID,914.841,VALID,0,VALID,83.3697,VALID,0,VALID,21.4778,VALID,48,VALID,1.39258,
2011-10-18, 03:40:05,VALID,914.847,VALID,0,VALID,83.5069,VALID,0,VALID,21.4973,VALID,69,VALID,0.895703,
2011-10-18, 03:41:05,VALID,914.84,VALID,0,VALID,83.6365,VALID,0,VALID,21.4388,VALID,38,VALID,1.31445,
2011-10-18, 03:42:05,VALID,914.848,VALID,0,VALID,83.484,VALID,0,VALID,21.4177,VALID,45,VALID,0.938281,
2011-10-18, 03:43:05,VALID,914.863,VALID,0,VALID,83.4459,VALID,0,VALID,21.4778,VALID,45,VALID,0.310937,
2011-10-18, 03:44:05,VALID,914.866,VALID,0,VALID,83.4993,VALID,0,VALID,21.4583,VALID,45,VALID,1.09375,
2011-10-18, 03:45:05,VALID,914.851,VALID,0,VALID,83.5603,VALID,0,VALID,21.4193,VALID,57,VALID,0.560547,